FW0579 Weather Reports


Display with metric or nautical units.
time (UTC)temp
F
wind
direction
speed
MPH
gust
MPH
rain 1hr
in
rain 24hr
in
rain mn
in
humidity
%
barometer
mb
20260506141528 56 288 0.0 0.0 0.00 0.00 0.00 86 1019.6
20260506140016 56 360 0.0 0.0 0.00 0.00 0.00 87 1019.4
20260506134514 56 360 0.0 0.0 0.00 0.00 0.00 87 1019.4
20260506133011 56 360 0.0 0.0 0.00 0.00 0.00 86 1019.2
20260506131512 56 360 0.0 0.0 0.00 0.00 0.00 86 1019.2
20260506130010 56 360 0.0 0.0 0.00 0.00 0.00 86 1019.2
20260506124509 56 360 0.0 0.0 0.00 0.00 0.00 86 1019.1
20260506123012 56 360 0.0 0.0 0.00 0.00 0.00 87 1019.2
20260506121512 56 360 0.0 0.0 0.00 0.00 0.00 86 1019.1
20260506120015 55 360 0.0 3.0 0.00 0.00 0.00 86 1018.9
20260506114506 55 360 0.0 2.0 0.00 0.00 0.00 87 1019.0
20260506113006 56 360 0.0 0.0 0.00 0.00 0.00 87 1019.0
20260506111504 56 360 0.0 0.0 0.00 0.03 0.00 87 1018.9
20260506110003 56 360 0.0 0.0 0.00 0.03 0.00 87 1018.7
20260506104502 56 360 0.0 1.0 0.00 0.03 0.00 87 1018.4
20260506103005 56 360 0.0 0.0 0.00 0.03 0.00 87 1018.4
20260506101504 56 360 0.0 0.0 0.00 0.06 0.00 87 1018.3
20260506100113 56 360 0.0 0.0 0.00 0.06 0.00 87 1018.2
20260506094604 56 360 0.0 0.0 0.00 0.06 0.00 87 1018.2
20260506093101 56 360 0.0 5.0 0.00 0.06 0.00 87 1018.1
20260506091558 56 360 0.0 0.0 0.00 0.09 0.00 87 1018.3
20260506090104 55 360 0.0 0.0 0.00 0.09 0.00 87 1018.3
20260506084624 55 360 0.0 0.0 0.00 0.09 0.00 86 1018.3
20260506083055 55 360 0.0 2.0 0.00 0.09 0.00 86 1018.4
20260506081559 55 360 0.0 3.0 0.00 0.15 0.00 86 1018.6
20260506073051 55 360 0.0 2.0 0.00 0.15 0.00 84 1018.0
20260506071548 56 360 1.0 3.0 0.00 0.17 0.00 83 1017.9
20260506061539 57 284 3.0 7.0 0.00 0.17 0.00 81 1017.3
20260506044529 60 260 3.0 6.0 0.00 0.17 0.00 80 1016.3
20260506043025 60 225 2.0 4.0 0.00 0.17 0.00 80 1016.2
20260506041523 60 223 3.0 4.0 0.00 0.17 0.17 80 1016.0
20260506040029 60 223 2.0 3.0 0.00 0.17 0.17 80 1015.9
20260506034523 61 223 2.0 4.0 0.00 0.17 0.17 80 1015.7
20260506033020 61 223 0.0 0.0 0.00 0.17 0.17 80 1015.7
20260506031521 62 223 0.0 0.0 0.00 0.17 0.17 80 1015.6
20260506030021 62 223 0.0 0.0 0.00 0.17 0.17 79 1015.4
20260506024521 62 223 0.0 0.0 0.00 0.17 0.17 77 1015.2
20260506023035 62 223 0.0 2.0 0.00 0.17 0.17 76 1015.2
20260506021532 62 223 0.0 3.0 0.00 0.17 0.17 76 1015.1
20260506020024 63 222 2.0 4.0 0.00 0.17 0.17 75 1014.9
20260506014520 63 222 1.0 4.0 0.00 0.17 0.17 74 1014.9
20260506013026 63 222 3.0 7.0 0.00 0.17 0.17 72 1015.0
20260506011518 64 230 4.0 7.0 0.00 0.17 0.17 71 1014.9
20260506010018 64 227 4.0 6.0 0.00 0.17 0.17 71 1014.8
20260506004520 64 232 4.0 7.0 0.00 0.17 0.17 71 1014.8
20260506003016 65 221 3.0 8.0 0.00 0.17 0.17 71 1014.7
20260506001515 65 229 3.0 9.0 0.00 0.17 0.17 71 1014.7
20260506000021 65 227 1.0 6.0 0.00 0.17 0.17 72 1014.7
20260505234517 65 236 3.0 8.0 0.00 0.17 0.17 71 1014.5
20260505233014 65 360 4.0 9.0 0.00 0.17 0.17 72 1014.5
20260505231527 64 360 2.0 8.0 0.00 0.17 0.17 72 1014.4
20260505230010 64 360 3.0 6.0 0.00 0.17 0.17 73 1014.5
20260505224508 63 360 2.0 5.0 0.00 0.17 0.17 76 1014.5
20260505223003 62 360 3.0 6.0 0.00 0.17 0.17 76 1014.8
20260505221502 62 360 3.0 5.0 0.00 0.17 0.17 78 1014.9
20260505220005 61 231 2.0 5.0 0.00 0.17 0.17 79 1015.1
20260505214507 61 360 2.0 8.0 0.00 0.17 0.17 80 1015.1
20260505213014 60 360 0.0 5.0 0.00 0.17 0.17 80 1015.2
20260505211509 60 360 0.0 4.0 0.00 0.17 0.17 81 1015.4
20260505210001 60 227 4.0 8.0 0.00 0.17 0.17 80 1015.3
20260505204500 61 252 5.0 11.0 0.00 0.17 0.17 78 1015.4
20260505203122 61 221 3.0 8.0 0.00 0.17 0.17 79 1015.4
20260505201604 60 186 0.0 4.0 0.00 0.17 0.17 83 1015.4
20260505200056 59 100 0.0 2.0 0.00 0.17 0.17 83 1015.5
20260505194553 59 169 0.0 3.0 0.00 0.17 0.17 84 1015.6
20260505193051 59 211 0.0 2.0 0.00 0.17 0.17 84 1015.7
20260505191600 58 212 1.0 4.0 0.00 0.17 0.17 86 1015.6
20260505190047 58 211 0.0 2.0 0.00 0.17 0.17 87 1015.5
20260505184545 57 223 0.0 3.0 0.00 0.17 0.17 87 1015.4
20260505183044 57 222 1.0 3.0 0.00 0.17 0.17 87 1015.4
20260505181546 56 219 0.0 3.0 0.00 0.17 0.17 87 1015.2
20260505180049 56 221 1.0 6.0 0.00 0.17 0.17 88 1015.0
20260505174544 55 228 4.0 8.0 0.00 0.17 0.17 89 1014.9
20260505173040 55 218 3.0 6.0 0.00 0.17 0.17 89 1015.0
20260505171543 55 238 3.0 7.0 0.00 0.17 0.17 90 1014.9
20260505170052 55 186 0.0 0.0 0.00 0.17 0.17 91 1014.9
20260505164541 55 186 0.0 0.0 0.00 0.17 0.17 91 1014.9
20260505163037 55 186 0.0 4.0 0.00 0.17 0.17 91 1014.9
20260505161535 55 101 0.0 0.0 0.00 0.17 0.17 91 1014.8
20260505153036 54 109 1.0 4.0 0.00 0.17 0.17 91 1014.7
20260505151549 54 134 0.0 2.0 0.00 0.17 0.17 91 1014.5